Вернуться в каталог

STARLINK-36763

АктивенСвязьVLEO
NORAD 67906·PAYLOAD·🇺🇸 United States

Запущен Feb 22, 2026 с Vandenberg Space Force Base

Loading…

Ближайшие Пролёты (ближайшие 24 часа)

TLE

СвежийSource: CelesTrak SupGP

Эпоха: Sep 15, 2026, 04:23 UTC

1 67906C 26036C   26258.18312500 -.00028937  00000+0 -10483-2 0  2584
2 67906  42.9991 255.4369 0001285 268.0721 282.7747 15.27586288    10

Отслеживайте STARLINK-36763 в реальном времени с AllMySat

Download on the App Store